Weather History for Highgate, VT

Change the Weather History Date:

Thursday, September 13, 2012

  Actual Average (KPBG) Record (KPBG)
Temperature  
Mean Temperature 70 °F 60 °F  
Max Temperature 81 °F 72 °F 93 °F (1948)
Min Temperature 59 °F 49 °F 33 °F (1985)
Degree Days  
Heating Degree Days 0 5  
Month to date heating degree days 49  
Since 1 July heating degree days 90  
Cooling Degree Days 5 1  
Month to date cooling degree days 19  
Year to date cooling degree days 341  
Growing Degree Days 20 (Base 50)    
Moisture  
Dew Point 54 °F    
Average Humidity 60    
Maximum Humidity 83    
Minimum Humidity 40    
Precipitation  
Precipitation 0.00 in - 1.83 in (1987)
Month to date precipitation  
Year to date precipitation  
Sea Level Pressure  
Sea Level Pressure 30.24 in    
Wind  
Wind Speed 5 mph (SSW)    
Max Wind Speed 9 mph    
Max Gust Speed 16 mph    
Visibility 10 miles    
Events      
T = Trace of Precipitation, MM = Missing Value Source: NWS Daily Summary

Daily Weather History Graph

Daily Weather History Graph

Search for Another Location

Airport:

Trip Planner

Search our weather history database for the weather conditions in past years. The results will help you decide how hot, cold, wet, or windy it might be!

Date:

Astronomy

Sep. 13, 2012 Rise Set
Actual Time 6:29 AM EDT 7:06 PM EDT
Civil Twilight 5:59 AM EDT 7:35 PM EDT
Nautical Twilight 5:24 AM EDT 8:10 PM EDT
Astronomical Twilight 4:48 AM EDT 8:46 PM EDT
Moon 3:40 AM EDT (9/13) 5:30 PM EDT (9/13)
Length of Visible Light 13h 35m
Length of Day
12h 36m
Waning Crescent, 7% of the Moon is Illuminated
Sep 13
Waning Crescent
Sep 15
New
Sep 22
First Quarter
Sep 29
Full
Oct 8
Last Quarter

Hourly Weather History & Observations

Time (EDT) Temp. Heat Index Dew Point Humidity Pressure Visibility Wind Dir Wind Speed Gust Speed Precip Events Conditions
12:15 AM 64.4 °F - 51.4 °F 63% 30.26 in 10.0 mi South 3.5 mph - N/A   Clear
12:35 AM 64.4 °F - 52.0 °F 64% 30.27 in 10.0 mi South 4.6 mph - N/A   Clear
12:55 AM 64.4 °F - 51.8 °F 64% 30.27 in 10.0 mi South 4.6 mph - N/A   Clear
1:15 AM 64.0 °F - 51.8 °F 64% 30.27 in 10.0 mi South 4.6 mph - N/A   Clear
1:35 AM 62.1 °F - 50.4 °F 65% 30.27 in 10.0 mi South 3.5 mph - N/A   Clear
1:55 AM 61.9 °F - 50.9 °F 67% 30.27 in 10.0 mi South 4.6 mph - N/A   Clear
2:15 AM 61.9 °F - 50.5 °F 66% 30.27 in 10.0 mi South 6.9 mph - N/A   Clear
2:35 AM 61.9 °F - 50.4 °F 66% 30.27 in 10.0 mi South 5.8 mph - N/A   Clear
3:15 AM 61.9 °F - 50.0 °F 65% 30.27 in 10.0 mi South 5.8 mph - N/A   Clear
3:35 AM 61.9 °F - 50.4 °F 66% 30.27 in 10.0 mi South 6.9 mph - N/A   Clear
4:15 AM 60.8 °F - 49.6 °F 67% 30.27 in 10.0 mi South 4.6 mph - N/A   Clear
4:35 AM 60.3 °F - 49.3 °F 67% 30.27 in 10.0 mi South 5.8 mph - N/A   Clear
4:55 AM 60.1 °F - 49.3 °F 67% 30.27 in 10.0 mi South 4.6 mph - N/A   Clear
5:15 AM 59.7 °F - 49.3 °F 68% 30.27 in 10.0 mi SSW 4.6 mph - N/A   Clear
5:35 AM 59.7 °F - 49.1 °F 68% 30.28 in 10.0 mi SSW 4.6 mph - N/A   Clear
5:55 AM 59.4 °F - 49.3 °F 69% 30.27 in 10.0 mi SSW 5.8 mph - N/A   Clear
6:15 AM 59.4 °F - 49.6 °F 70% 30.28 in 10.0 mi SSW 5.8 mph - N/A   Clear
6:35 AM 59.4 °F - 50.0 °F 71% 30.29 in 10.0 mi SSW 6.9 mph - N/A   Clear
6:55 AM 59.4 °F - 50.0 °F 71% 30.29 in 10.0 mi SSW 5.8 mph - N/A   Clear
7:15 AM 59.4 °F - 49.8 °F 71% 30.29 in 10.0 mi South 6.9 mph - N/A   Clear
7:35 AM 59.7 °F - 50.0 °F 70% 30.29 in 10.0 mi SSW 6.9 mph - N/A   Clear
7:55 AM 61.0 °F - 50.5 °F 68% 30.29 in 10.0 mi SSW 6.9 mph - N/A   Clear
8:15 AM 61.9 °F - 51.3 °F 68% 30.28 in 10.0 mi South 8.1 mph - N/A   Clear
8:35 AM 64.4 °F - 52.9 °F 66% 30.28 in 10.0 mi South 9.2 mph - N/A   Clear
8:55 AM 67.1 °F - 54.5 °F 64% 30.28 in 10.0 mi South 6.9 mph 16.1 mph N/A   Clear
9:15 AM 67.1 °F - 53.6 °F 62% 30.29 in 10.0 mi South 9.2 mph - N/A   Clear
9:35 AM 67.1 °F - 52.7 °F 60% 30.29 in 10.0 mi South 6.9 mph - N/A   Clear
9:55 AM 68.7 °F - 54.1 °F 60% 30.29 in 10.0 mi South 6.9 mph - N/A   Clear
10:15 AM 72.0 °F - 55.9 °F 57% 30.29 in 10.0 mi SSW 6.9 mph - N/A   Clear
10:35 AM 72.0 °F - 55.2 °F 55% 30.28 in 10.0 mi South 6.9 mph - N/A   Clear
10:55 AM 72.0 °F - 55.0 °F 55% 30.28 in 10.0 mi South 5.8 mph - N/A   Clear
11:15 AM 73.9 °F - 55.9 °F 53% 30.28 in 10.0 mi SSW 9.2 mph - N/A   Clear
11:35 AM 73.6 °F - 56.3 °F 55% 30.28 in 10.0 mi South 6.9 mph - N/A   Clear
11:55 AM 74.5 °F - 57.2 °F 55% 30.27 in 10.0 mi SW 5.8 mph - N/A   Clear
12:15 PM 74.8 °F - 57.2 °F 54% 30.27 in 10.0 mi SSW 6.9 mph - N/A   Clear
12:35 PM 77.0 °F - 58.5 °F 53% 30.27 in 10.0 mi SSW 5.8 mph - N/A   Clear
1:15 PM 77.0 °F - 57.6 °F 51% 30.26 in 10.0 mi SSW 5.8 mph - N/A   Clear
1:35 PM 77.9 °F - 57.9 °F 50% 30.25 in 10.0 mi SSW 4.6 mph - N/A   Clear
1:55 PM 78.4 °F - 57.7 °F 49% 30.25 in 10.0 mi South 6.9 mph - N/A   Clear
2:15 PM 79.7 °F - 57.9 °F 47% 30.24 in 10.0 mi SSW 4.6 mph - N/A   Clear
2:35 PM 79.7 °F - 57.4 °F 46% 30.23 in 10.0 mi SW 5.8 mph - N/A   Clear
2:55 PM 80.1 °F 80.5 °F 57.7 °F 46% 30.22 in 10.0 mi SW 4.6 mph - N/A   Clear
3:15 PM 80.8 °F 80.7 °F 55.8 °F 42% 30.22 in 10.0 mi SSW 4.6 mph - N/A   Clear
3:35 PM 80.8 °F 80.6 °F 55.0 °F 41% 30.21 in 10.0 mi South 5.8 mph - N/A   Clear
3:55 PM 81.3 °F 81.0 °F 55.4 °F 41% 30.21 in 10.0 mi South 4.6 mph - N/A   Clear
4:15 PM 80.8 °F 80.5 °F 54.3 °F 40% 30.20 in 10.0 mi South 4.6 mph - N/A   Clear
4:35 PM 80.4 °F 80.4 °F 55.0 °F 42% 30.20 in 10.0 mi SSW 5.8 mph - N/A   Clear
4:55 PM 80.1 °F 80.2 °F 55.9 °F 43% 30.19 in 10.0 mi SSW 4.6 mph - N/A   Clear
5:15 PM 79.7 °F - 56.3 °F 44% 30.19 in 10.0 mi South 4.6 mph - N/A   Clear
5:35 PM 79.7 °F - 57.7 °F 47% 30.18 in 10.0 mi South 3.5 mph - N/A   Clear
5:55 PM 78.3 °F - 55.9 °F 46% 30.19 in 10.0 mi South 3.5 mph - N/A   Clear
6:15 PM 77.0 °F - 55.4 °F 47% 30.19 in 10.0 mi South 5.8 mph - N/A   Clear
6:35 PM 77.0 °F - 57.2 °F 50% 30.18 in 10.0 mi Calm Calm - N/A   Clear
7:15 PM 74.1 °F - 57.2 °F 55% 30.19 in 10.0 mi South 4.6 mph - N/A   Clear
7:35 PM 72.0 °F - 55.9 °F 57% 30.18 in 10.0 mi Calm Calm - N/A   Clear
7:55 PM 71.8 °F - 58.3 °F 62% 30.19 in 10.0 mi Calm Calm - N/A   Clear
8:15 PM 67.1 °F - 57.7 °F 72% 30.19 in 10.0 mi Calm Calm - N/A   Clear
8:35 PM 67.1 °F - 59.0 °F 75% 30.20 in 10.0 mi Calm Calm - N/A   Clear
8:55 PM 67.1 °F - 59.4 °F 76% 30.19 in 10.0 mi Calm Calm - N/A   Clear
9:15 PM 67.1 °F - 58.5 °F 74% 30.19 in 10.0 mi Calm Calm - N/A   Clear
9:35 PM 62.1 °F - 56.8 °F 83% 30.19 in 10.0 mi Calm Calm - N/A   Clear
9:55 PM 67.1 °F - 57.4 °F 71% 30.19 in 10.0 mi Calm Calm - N/A   Clear
10:15 PM 67.1 °F - 56.7 °F 69% 30.19 in 10.0 mi Calm Calm - N/A   Clear
10:35 PM 67.1 °F - 56.7 °F 69% 30.19 in 10.0 mi South 4.6 mph - N/A   Clear
10:55 PM 67.1 °F - 55.9 °F 67% 30.19 in 10.0 mi South 4.6 mph - N/A   Clear
11:15 PM 67.1 °F - 55.4 °F 66% 30.19 in 10.0 mi South 4.6 mph - N/A   Clear
11:35 PM 67.1 °F - 55.9 °F 67% 30.19 in 10.0 mi South 3.5 mph - N/A   Clear